Flag for U.S.A. Weather past 2 weeks in Seattle, Washington, U.S.A.

Now
58 °F

More clouds than sun.


Feels Like: 57 °F
Forecast: 54 / 67 °F
Wind: 7 mph from Southwest

Location: Seattle Boeing Field

Current Time: May 22, 2015 at 10:11:53 AM

Latest Report: May 22, 2015 at 9:53 AM


Visibility: 10 mi

Pressure: 29.98 "Hg

Humidity: 75%

Dew point: 50 °F

Location of SeattleLocation

Historic Weather in Seattle — Graph

°F

Seattle temperature yesterday

Maximum temperature yesterday: 80 °F (at 4:53 PM)
Minimum temperature yesterday: 58 °F (at 3:53 AM)
Average temperature yesterday: 69 °F

Past Weeks' High & Low Weather Summary

 TemperatureHumidityPressure
High80 °F (May 9, 4:53 PM)86% (May 13, 11:53 PM)30.17 "Hg (May 13, 11:53 PM)
Low49 °F (May 8, 5:53 AM)19% (May 8, 7:53 PM)29.80 "Hg (May 21, 6:53 PM)
Average61 °F63%29.97 "Hg
* Reported May 7 8:53 AM — May 22 8:53 AM, Seattle, Weather by CustomWeather, © 2015

Note: Actual official high and low records may vary slightly from our data, if they occured in-between our weather recording intervals... More about our weather records

Advertising

Seattle weather history for previous 24 hours

 ConditionsComfort  
Time TempWeatherWind HumidityBarometerVisibility
8:53 AM
Fri, May 22
58 °FOvercast.9 mph72%29.98 "Hg10 mi
7:53 AM57 °FOvercast.7 mph78%29.96 "Hg10 mi
6:53 AM57 °FOvercast.7 mph74%29.96 "Hg10 mi
5:53 AM57 °FOvercast.7 mph78%29.95 "Hg10 mi
4:53 AM57 °FOvercast.6 mph78%29.93 "Hg10 mi
3:53 AM57 °FOvercast.9 mph78%29.93 "Hg10 mi
3:02 AM57 °FPassing clouds.6 mph77%29.91 "Hg10 mi
2:53 AM57 °FPartly cloudy.No wind78%29.91 "Hg10 mi
1:53 AM58 °FClear.6 mph75%29.90 "Hg10 mi
12:53 AM60 °FClear.6 mph72%29.89 "Hg10 mi
11:53 PM
Thu, May 21
64 °FClear.7 mph68%29.88 "Hg10 mi
10:53 PM68 °FClear.5 mph55%29.86 "Hg10 mi
9:53 PM72 °FClear.3 mph48%29.84 "Hg10 mi
8:53 PM75 °FSunny.No wind45%29.82 "Hg10 mi
7:53 PM77 °FPartly sunny.5 mph44%29.80 "Hg10 mi
6:53 PM79 °FPartly sunny.6 mph42%29.80 "Hg10 mi
5:53 PM80 °FPartly sunny.3 mph41%29.81 "Hg10 mi
4:53 PM80 °FPartly sunny.6 mph44%29.82 "Hg10 mi
3:53 PM79 °FBroken clouds.No wind45%29.82 "Hg10 mi
2:53 PM76 °FPartly sunny.No wind47%29.82 "Hg10 mi
1:53 PM76 °FPartly sunny.7 mph42%29.84 "Hg10 mi
12:53 PM73 °FPartly sunny.6 mph46%29.85 "Hg10 mi
11:53 AM72 °FPartly sunny.5 mph48%29.86 "Hg10 mi
10:53 AM68 °FScattered clouds.5 mph59%29.87 "Hg10 mi
Weather by CustomWeather, © 2015

See weather overviewHow to use our weather pages